[[{"header":{"parameterUnit":"m.s-1","parameterCategory":1,"la1":30.2991,"la2":30.254,"lo1":-89.0895,"lo2":-89.0444,"dy":0.0017,"dx":0.0017,"nx":28,"ny":28,"refTime":"2025-03-17T09:00:00:Z","depth":0,"parameterNumber":2,"parameterNumberName":"U-component_of_WINDS"},"data":[0,0,0,0,0,0,0,0,0,0,0,0,0,0,0,0,0,0,0,0,0,0,0,0,0,0,0,0,0,0,0,0,0,0,0,0,0,0,0,0,0,0,0,0,0,0,0,0,0,0,0,0,0,0,0,0,0,0,0.5486,0.5485,0,0.5426,0.5426,0.5425,0.5358,0.5357,0.5356,0.5355,0.5298,0.5297,0.5296,0,0,0,0,0,0,0,0,0,0,0,0,0,0.5543,0.5543,0.5486,0.5485,0.5484,0.5427,0.5426,0.5425,0.5358,0.5357,0.5356,0.5354,0.5298,0.5297,0.5296,0,0,0,0,0,0,0,0,0,0,0,0,0,0.5505,0.5542,0.5486,0.5444,0.5439,0.5427,0.5426,0.5425,0.5358,0.5357,0.5355,0.5354,0.5298,0.5297,0.5296,0.5321,0,0,0.5294,0.5293,0,0,0,0,0,0,0,0,0.5507,0.5503,0.5451,0.5447,0.5442,0.5398,0.5425,0.539,0.5359,0.5389,0.5355,0.5353,0.5332,0.5329,0.5321,0.5319,0.5316,0.5294,0.5293,0.5293,0.5292,0,0,0,0,0,0,0,0.551,0.5505,0.5462,0.545,0.5445,0.5429,0.5422,0.5418,0.537,0.5386,0.5381,0.5375,0.533,0.5322,0.5319,0.5315,0.5294,0.5293,0.5292,0.5292,0.533,0.5332,0,0,0,0,0,0,0.5518,0.5508,0.5464,0.5461,0.5471,0.5429,0.5421,0.5414,0.537,0.5362,0.5376,0.5372,0.5324,0.532,0.5317,0.5344,0.5293,0.5292,0.5291,0.5329,0.5331,0.5332,0,0,0,0,0,0,0.552,0.5515,0.5467,0.5483,0.5475,0.5429,0.5422,0.5413,0.5405,0.5362,0.5354,0.5377,0.5323,0.5318,0.532,0.5341,0.5291,0.5291,0.5327,0.533,0.5332,0.5397,0,0,0,0,0,0,0.5522,0.5516,0.5525,0.5483,0.5475,0.5471,0.5423,0.5413,0.5404,0.5397,0.5361,0.5353,0.5321,0.5322,0.532,0.5339,0.529,0.5325,0.5328,0.5331,0.5393,0.5402,0.5409,0,0,0,0,0,0.5524,0.5546,0.5526,0.5521,0.5484,0.5472,0.5467,0.5429,0.5406,0.5414,0.5386,0.5355,0.5338,0.5323,0.5319,0.5339,0.5324,0.5327,0.5331,0.539,0.54,0.5409,0,0,0,0,0,0,0.5593,0.554,0.5517,0.5526,0.5504,0.5461,0.547,0.5441,0.5426,0.5421,0.5375,0.5367,0.5375,0.5357,0.534,0.536,0.5326,0.533,0.5373,0.5382,0.539,0.5395,0.5289,0,0,0,0,0,0.5609,0.5602,0.5557,0.5569,0.5559,0.5517,0.551,0.5482,0.5458,0.5449,0.5421,0.54,0.539,0.5385,0.5373,0.5389,0.5381,0.5401,0.5409,0.5415,0.5419,0.5427,0.5435,0.5344,0.5344,0.5344,0,0,0.5642,0.5612,0.5612,0.5582,0.5562,0.5557,0.551,0.5507,0.5503,0.5449,0.5449,0.5428,0.5401,0.5411,0.5414,0.5396,0.5442,0.542,0.5425,0.5425,0.5431,0.544,0.5448,0.5346,0.5346,0.5345,0,0,0.5701,0.5677,0.5685,0.5665,0.5635,0.5606,0.5608,0.5569,0.5553,0.5552,0.5511,0.5506,0.549,0.5473,0.5462,0.5512,0.5483,0.551,0.5552,0.556,0.5567,0.5573,0.5592,0.56,0.5513,0.5514,0.5514,0,0.5747,0.5737,0.5693,0.5693,0.5681,0.563,0.5638,0.5622,0.5589,0.5583,0.5563,0.5541,0.5519,0.5524,0.5537,0.5529,0.5531,0.5515,0.5569,0.5575,0.558,0.5598,0.5605,0.5517,0.5517,0.5516,0.5516,0,0.5795,0.5789,0.5799,0.5768,0.5758,0.5762,0.5719,0.5714,0.5687,0.5661,0.5661,0.5633,0.5615,0.5613,0.5587,0.5615,0.5605,0.5577,0.5543,0.5593,0.5609,0.5616,0.5522,0.5521,0.552,0.5519,0,0,0.5897,0.5841,0.5845,0.5831,0.5792,0.5787,0.5789,0.577,0.5767,0.5746,0.5747,0.5733,0.5708,0.5695,0.5666,0.5673,0.5717,0.5645,0.5644,0.5661,0.5746,0.5768,0.5777,0.5696,0.5697,0.5698,0.5749,0,0.595,0.5949,0.5909,0.592,0.5914,0.5865,0.5866,0.5843,0.5819,0.5811,0.5783,0.5775,0.5741,0.5734,0.5738,0.5711,0.5734,0.5706,0.5698,0.5698,0.5708,0.5785,0.5808,0.5858,0.5755,0.5756,0.5757,0,0.6012,0.5994,0.6004,0.5964,0.596,0.5962,0.5942,0.5934,0.5908,0.5889,0.5875,0.5841,0.5841,0.5807,0.5806,0.5788,0.5782,0.5768,0.5769,0.5769,0.5732,0.5788,0.5873,0.5881,0.5766,0.5765,0.5764,0,0.6088,0.6065,0.6068,0.6056,0.601,0.6013,0.5994,0.5966,0.5957,0.5939,0.5933,0.5915,0.5906,0.5894,0.5857,0.5836,0.5861,0.5824,0.5847,0.5849,0.5857,0.5857,0.5944,0.585,0.585,0.585,0.585,0,0.6152,0.616,0.6101,0.6103,0.6111,0.6065,0.6074,0.605,0.6025,0.6022,0.5978,0.5977,0.5928,0.5921,0.5892,0.5896,0.5892,0.5878,0.5871,0.5883,0.5885,0.588,0.5876,0.5852,0.5852,0.5851,0.5851,0,0.6238,0.6198,0.6198,0.6154,0.6143,0.6151,0.6114,0.6114,0.6086,0.6083,0.608,0.6036,0.6026,0.5987,0.5968,0.5948,0.5963,0.5947,0.5972,0.5967,0.5993,0.5992,0.6081,0.6091,0.599,0.5991,0.5992,0,0.6283,0.6288,0.6244,0.6238,0.6221,0.6212,0.6202,0.6157,0.6149,0.6118,0.6123,0.6108,0.6095,0.6081,0.6048,0.6033,0.6017,0.6049,0.6015,0.6027,0.602,0.602,0.6021,0.6058,0.6059,0.606,0.6061,0,0.6367,0.6346,0.6333,0.6313,0.6303,0.6285,0.6265,0.6263,0.6213,0.6206,0.6194,0.6183,0.6162,0.6149,0.6129,0.611,0.6078,0.6072,0.6077,0.609,0.6105,0.6099,0.5994,0.607,0.607,0.6069,0.6068,0.6068,0.6434,0.6436,0.6406,0.6393,0.6372,0.6354,0.6353,0.6323,0.6312,0.6291,0.6265,0.6257,0.6229,0.6198,0.6182,0.6175,0.6157,0.6164,0.6166,0.6169,0.6175,0.6104,0.6171,0.6171,0.617,0.617,0.617,0,0.6517,0.6494,0.6483,0.6455,0.6445,0.6413,0.6389,0.6383,0.6376,0.6353,0.6339,0.6326,0.6313,0.6278,0.6262,0.6263,0.6248,0.6261,0.6261,0.6257,0.6192,0.619,0.6273,0.6273,0.6273,0.6273,0.6273,0.6273,0.6559,0.6561,0.6537,0.6529,0.6506,0.6497,0.6486,0.6469,0.645,0.6437,0.6425,0.6402,0.6374,0.6355,0.6342,0.6332,0.6329,0.6346,0.6332,0.6272,0.6262,0.6253,0.6251,0.6346,0.6346,0.6399,0.6399,0.6399]},{"header":{"parameterUnit":"m.s-1","parameterCategory":1,"la1":30.2991,"la2":30.254,"lo1":-89.0895,"lo2":-89.0444,"dy":0.0017,"dx":0.0017,"nx":28,"ny":28,"refTime":"2025-03-17T09:00:00:Z","depth":0,"parameterNumber":3,"parameterNumberName":"V-component_of_WINDS"},"data":[0,0,0,0,0,0,0,0,0,0,0,0,0,0,0,0,0,0,0,0,0,0,0,0,0,0,0,0,0,0,0,0,0,0,0,0,0,0,0,0,0,0,0,0,0,0,0,0,0,0,0,0,0,0,0,0,0,0,-0.0332,-0.0332,0,-0.0324,-0.0324,-0.0324,-0.0322,-0.0322,-0.0322,-0.0322,-0.0316,-0.0316,-0.0315,0,0,0,0,0,0,0,0,0,0,0,0,0,-0.0344,-0.0344,-0.0332,-0.0332,-0.0331,-0.0324,-0.0324,-0.0324,-0.0322,-0.0322,-0.0322,-0.0322,-0.0316,-0.0316,-0.0315,0,0,0,0,0,0,0,0,0,0,0,0,0,-0.0338,-0.0344,-0.0332,-0.0329,-0.0329,-0.0324,-0.0324,-0.0324,-0.0322,-0.0322,-0.0322,-0.0322,-0.0316,-0.0316,-0.0315,-0.0313,0,0,-0.0315,-0.0314,0,0,0,0,0,0,0,0,-0.0338,-0.0337,-0.033,-0.0329,-0.0329,-0.0324,-0.0326,-0.032,-0.0322,-0.0325,-0.0322,-0.0322,-0.0319,-0.0318,-0.0317,-0.0313,-0.0312,-0.0315,-0.0314,-0.0314,-0.0314,0,0,0,0,0,0,0,-0.0339,-0.0338,-0.0329,-0.033,-0.0329,-0.0329,-0.0328,-0.0325,-0.0321,-0.0324,-0.0324,-0.0323,-0.0318,-0.0317,-0.0317,-0.0312,-0.0315,-0.0314,-0.0314,-0.0314,-0.0305,-0.0305,0,0,0,0,0,0,-0.0339,-0.0338,-0.0329,-0.0329,-0.0334,-0.0329,-0.0328,-0.0326,-0.0321,-0.0321,-0.0323,-0.0323,-0.0317,-0.0317,-0.0316,-0.0312,-0.0314,-0.0314,-0.0314,-0.0305,-0.0305,-0.0305,0,0,0,0,0,0,-0.034,-0.0339,-0.0329,-0.0333,-0.0332,-0.0328,-0.0326,-0.0325,-0.0324,-0.0321,-0.032,-0.0322,-0.0317,-0.0317,-0.0313,-0.0312,-0.0314,-0.0314,-0.0305,-0.0305,-0.0305,-0.0305,0,0,0,0,0,0,-0.034,-0.0339,-0.0338,-0.0333,-0.0332,-0.0326,-0.0326,-0.0325,-0.0323,-0.0323,-0.032,-0.0319,-0.0317,-0.0314,-0.0313,-0.0312,-0.0313,-0.0305,-0.0305,-0.0305,-0.0305,-0.0305,-0.0305,0,0,0,0,0,-0.0341,-0.0339,-0.0338,-0.0337,-0.033,-0.0326,-0.0326,-0.0323,-0.0323,-0.0322,-0.032,-0.0319,-0.0312,-0.0313,-0.0313,-0.0311,-0.0305,-0.0305,-0.0305,-0.0305,-0.0305,-0.0305,0,0,0,0,0,0,-0.0344,-0.0338,-0.0337,-0.0334,-0.033,-0.0326,-0.0325,-0.0323,-0.032,-0.032,-0.0318,-0.0317,-0.0314,-0.0312,-0.0314,-0.0308,-0.0309,-0.0308,-0.0309,-0.0309,-0.0309,-0.0309,-0.0313,0,0,0,0,0,-0.0344,-0.0341,-0.0336,-0.0334,-0.0332,-0.0329,-0.0327,-0.0325,-0.0322,-0.0321,-0.0318,-0.0315,-0.0312,-0.0311,-0.0308,-0.0305,-0.0304,-0.0303,-0.0303,-0.0303,-0.0303,-0.03,-0.0299,-0.0304,-0.0304,-0.0304,0,0,-0.0345,-0.0342,-0.034,-0.0334,-0.0332,-0.0328,-0.0328,-0.0325,-0.0322,-0.032,-0.0317,-0.0315,-0.0311,-0.0308,-0.0306,-0.0306,-0.0301,-0.0303,-0.0303,-0.0302,-0.03,-0.0299,-0.0299,-0.0304,-0.0304,-0.0304,0,0,-0.0345,-0.0342,-0.0339,-0.0336,-0.0332,-0.0329,-0.0328,-0.0324,-0.0322,-0.0318,-0.0316,-0.0313,-0.0309,-0.0306,-0.0304,-0.0301,-0.03,-0.03,-0.0299,-0.0297,-0.0296,-0.0296,-0.0295,-0.0294,-0.03,-0.03,-0.03,0,-0.0347,-0.0342,-0.0338,-0.0335,-0.0332,-0.0329,-0.0326,-0.0323,-0.0319,-0.0317,-0.0317,-0.031,-0.0308,-0.0303,-0.0302,-0.0301,-0.0299,-0.0301,-0.0297,-0.0296,-0.0296,-0.0294,-0.0294,-0.03,-0.03,-0.03,-0.03,0,-0.0344,-0.034,-0.0338,-0.0332,-0.033,-0.0326,-0.0322,-0.032,-0.0318,-0.0315,-0.0311,-0.0308,-0.0304,-0.0302,-0.0301,-0.0297,-0.0297,-0.0297,-0.0298,-0.0296,-0.0294,-0.0294,-0.03,-0.03,-0.03,-0.03,0,0,-0.0347,-0.0338,-0.0337,-0.0334,-0.0328,-0.0325,-0.0322,-0.0317,-0.0314,-0.0311,-0.0308,-0.0303,-0.0302,-0.03,-0.0298,-0.0296,-0.0293,-0.0295,-0.0295,-0.0295,-0.0287,-0.0287,-0.0287,-0.0292,-0.0292,-0.0292,-0.0287,0,-0.0345,-0.0338,-0.0334,-0.0329,-0.0325,-0.0322,-0.0318,-0.0314,-0.0311,-0.0308,-0.0305,-0.0301,-0.0301,-0.0299,-0.0297,-0.0293,-0.0291,-0.0294,-0.0289,-0.0289,-0.029,-0.0286,-0.0287,-0.0283,-0.0287,-0.0287,-0.0287,0,-0.0343,-0.0339,-0.0333,-0.0326,-0.0324,-0.0321,-0.0316,-0.0313,-0.0308,-0.0306,-0.0302,-0.03,-0.0296,-0.0296,-0.029,-0.0292,-0.029,-0.0288,-0.0287,-0.0287,-0.0288,-0.0286,-0.0282,-0.0281,-0.0286,-0.0286,-0.0286,0,-0.0345,-0.0338,-0.0333,-0.033,-0.0323,-0.032,-0.0317,-0.0312,-0.0309,-0.0305,-0.0302,-0.0298,-0.0295,-0.0291,-0.0288,-0.0289,-0.0282,-0.0282,-0.028,-0.028,-0.0279,-0.0279,-0.0275,-0.0278,-0.0278,-0.0278,-0.0278,0,-0.0345,-0.0341,-0.0333,-0.033,-0.0326,-0.0321,-0.0317,-0.0314,-0.0309,-0.0305,-0.0302,-0.0298,-0.0294,-0.029,-0.0287,-0.0282,-0.0281,-0.0279,-0.0278,-0.0279,-0.028,-0.0278,-0.0278,-0.0278,-0.0278,-0.0278,-0.0278,0,-0.0347,-0.0341,-0.0336,-0.0328,-0.0326,-0.0323,-0.0317,-0.0314,-0.031,-0.0305,-0.0304,-0.0298,-0.0293,-0.0289,-0.0283,-0.028,-0.0275,-0.0274,-0.0277,-0.0276,-0.0274,-0.0274,-0.0269,-0.0268,-0.0271,-0.0271,-0.0271,0,-0.0346,-0.0343,-0.0335,-0.0332,-0.0328,-0.0324,-0.032,-0.0315,-0.0312,-0.0305,-0.0302,-0.0297,-0.0292,-0.0284,-0.0279,-0.0274,-0.0273,-0.0271,-0.0273,-0.0273,-0.0273,-0.0273,-0.0272,-0.0272,-0.0272,-0.0272,-0.0272,0,-0.0347,-0.0344,-0.0339,-0.0332,-0.0328,-0.0323,-0.0318,-0.0315,-0.0309,-0.0305,-0.03,-0.0296,-0.0288,-0.0283,-0.0277,-0.0273,-0.0271,-0.0271,-0.027,-0.0271,-0.0273,-0.0272,-0.0276,-0.0271,-0.0271,-0.0271,-0.0271,-0.0271,-0.0347,-0.0344,-0.0337,-0.0331,-0.0327,-0.0322,-0.0318,-0.0313,-0.0308,-0.0301,-0.0298,-0.0292,-0.0286,-0.0278,-0.0274,-0.027,-0.0269,-0.0268,-0.0268,-0.0268,-0.0268,-0.0273,-0.0269,-0.0269,-0.0269,-0.0268,-0.0268,0,-0.0347,-0.0342,-0.0337,-0.0329,-0.0324,-0.0322,-0.0315,-0.0312,-0.0306,-0.03,-0.0295,-0.0288,-0.0282,-0.0277,-0.027,-0.0268,-0.0266,-0.0266,-0.0266,-0.0266,-0.0269,-0.027,-0.0267,-0.0267,-0.0267,-0.0267,-0.0267,-0.0267,-0.0346,-0.034,-0.0337,-0.0328,-0.0323,-0.0317,-0.0313,-0.0308,-0.0304,-0.0295,-0.029,-0.0286,-0.028,-0.0273,-0.0268,-0.0266,-0.0264,-0.0264,-0.0262,-0.0265,-0.0265,-0.0266,-0.0267,-0.0264,-0.0264,-0.026,-0.026,-0.026]}]]